This demonstration page uses our WeatherBlox Daily Observations layout. Learn more.

Left ArrowRight Arrow

Hourly Observations for January 19, 2016

Temp ( °F °C ) Dew Point ( °F °C ) Humidity (%) Winds ( mph kmh ) Pressure ( in mb ) Visibility ( mi km ) Precip ( " mm )
12:53 am 00:53 Clear 25 -3.9 8 -13.3 48 48 WNW 3 6 30.37 1028 10 16 0.00 0.00
1:53 am 01:53 Clear 23 -5 9 -12.8 55 55 W 3 6 30.37 1029 10 16 0.00 0.00
2:53 am 02:53 Clear 22 -5.6 8 -13.3 55 55 WNW 3 6 30.37 1029 10 16 0.00 0.00
3:53 am 03:53 Clear 21 -6.1 8 -13.3 57 57 NW 5 7 30.37 1028 10 16 0.00 0.00
4:53 am 04:53 Clear 21 -6.1 8 -13.3 57 57 WNW 5 7 30.38 1029 10 16 0.00 0.00
5:53 am 05:53 Clear 21 -6.1 8 -13.3 57 57 N 6 9 30.38 1029 10 16 0.00 0.00
6:53 am 06:53 Clear 20 -6.7 6 -14.4 55 55 NNW 7 11 30.40 1030 10 16 0.00 0.00
7:53 am 07:53 Sunny 20 -6.7 5 -15 52 52 NNW 8 13 30.43 1031 10 16 0.00 0.00
8:53 am 08:53 Sunny 22 -5.6 6 -14.4 50 50 NNW 9 15 30.45 1031 10 16 0.00 0.00
9:53 am 09:53 Sunny 24 -4.4 6 -14.4 46 46 NW 12 19 30.47 1032 10 16 0.00 0.00
10:53 am 10:53 Sunny 27 -2.8 5 -15 39 39 WNW 10 17 30.48 1032 10 16 0.00 0.00
11:53 am 11:53 Sunny 30 -1.1 6 -14.4 36 36 NNW 8 13 30.48 1032 10 16 0.00 0.00
12:53 pm 12:53 Sunny 32 0 6 -14.4 33 33 WNW 10 17 30.45 1031 10 16 0.00 0.00
1:53 pm 13:53 Sunny 35 1.7 6 -14.4 29 29 NW 8 13 30.42 1030 10 16 0.00 0.00
2:53 pm 14:53 Sunny 37 2.8 5 -15 26 26 N 12 19 30.39 1029 10 16 0.00 0.00
3:53 pm 15:53 Sunny 38 3.3 5 -15 25 25 WNW 8 13 30.39 1029 10 16 0.00 0.00
4:53 pm 16:53 Sunny 38 3.3 5 -15 25 25 NNW 3 6 30.40 1030 10 16 0.00 0.00
5:53 pm 17:53 Sunny 35 1.7 4 -15.6 27 27 NW 7 11 30.40 1030 10 16 0.00 0.00
6:53 pm 18:53 Clear 33 0.6 6 -14.4 32 32 NW 3 6 30.41 1030 10 16 0.00 0.00
7:53 pm 19:53 Clear 33 0.6 7 -13.9 33 33 Calm 30.42 1030 10 16 0.00 0.00
8:53 pm 20:53 Clear 31 -0.6 11 -11.7 43 43 Calm 30.42 1030 10 16 0.00 0.00
9:53 pm 21:53 Clear 32 0 8 -13.3 36 36 Calm 30.41 1030 10 16 0.00 0.00
10:53 pm 22:53 Clear 32 0 9 -12.8 38 38 Calm 30.42 1030 10 16 0.00 0.00
11:53 pm 23:53 Clear 30 -1.1 14 -10 51 51 Calm 30.40 1030 10 16 0.00 0.00

Powered by AerisWeather